Regional Weather Roundup
Issued by NWS

Home | Current Version | Previous Version | Graphics & Text | Print | Product List | Glossary Off
Versions: 1 2 3 4 5 6 7 8 9 10 11 12 13 14 15 16 17 18 19 20 21 22 23 24 25 26 27 28 29 30 31 32 33 34 35 36 37 38 39 40 41 42 43 44 45 46 47 48 49 50

000
ASUS43 KDTX 231110
RWRMI
MICHIGAN HOURLY REGIONAL WEATHER ROUNDUP
NATIONAL WEATHER SERVICE DETROIT/PONTIAC MI
700 AM EDT WED APR 23 2014

NOTE: "FAIR" INDICATES FEW OR NO CLOUDS BELOW 12,000 FEET WITH NO
SIGNIFICANT WEATHER AND/OR OBSTRUCTION TO VISIBILITY.

MIZ047>049-052>055-059>063-066>070-074>076-081>083-231200-
SOUTHEAST LOWER MICHIGAN

CITY           SKY/WX    TMP DP  RH WIND       PRES   REMARKS
ADRIAN         CLOUDY    36  28  73 N13       30.06R
ALMA           CLEAR     31  28  86 NW6       30.08S
ANN ARBOR      CLOUDY    36  27  69 N15G21    30.04R
BAD AXE        CLOUDY    35  28  77 N15       30.02R
DETROIT CITY   CLOUDY    40  29  64 NW10      30.03R
DETROIT        CLOUDY    38  28  67 NW15G21   30.04R
FLINT          CLOUDY    36  28  73 NW14      30.05R
GROSSE ILE     CLOUDY    39  28  65 NW10G17   30.02R
HILLSDALE      CLOUDY    35  27  73 N13       30.05R
HOWELL         CLOUDY    33  28  82 NW8       30.05R

CITY           SKY/WX    TMP DP  RH WIND       PRES   REMARKS
JACKSON        PTCLDY    32  26  78 NW6       30.07R
LAMBERTVILLE   CLOUDY    37  30  75 NW12      30.04R
LANSING        CLEAR     31  26  82 NW7       30.08R
LAPEER         NOT AVBL
MASON          CLEAR     32  28  83 NW8       30.07R
MONROE         CLOUDY    37  30  75 N10       30.03R
MT. CLEMENS    CLOUDY    38  31  75 N14       30.01R
PONTIAC        CLOUDY    36  28  73 NW10      30.01R
PORT HURON     CLOUDY    36  30  80 N12G22    30.01R
TRI CITIES     CLEAR     33  27  78 NW9       30.06R
YPSILANTI      CLOUDY    39  28  64 NW17      30.04R
$$
MIZ043>046-050>051-056>058-064>065-071>073-077>080-231200-
SOUTHWEST LOWER MICHIGAN

CITY           SKY/WX    TMP DP  RH WIND       PRES   REMARKS
BATTLE CREEK   CLEAR     32  25  75 N7        30.08R
BENTON HARBOR  CLEAR     33  30  88 N9        30.13R
BIG RAPIDS     CLEAR     29  26  89 W6        30.09R
COLDWATER      CLEAR     31  27  83 NW6       30.08R
HOLLAND        CLEAR     34  26  72 VRB5      30.13R
GRAND RAPIDS   CLEAR     32  26  78 NW8       30.10R
KALAMAZOO      CLEAR     31  25  78 N9        30.09R
MARSHALL       CLEAR     31  26  81 NW3       30.07R
MUSKEGON       CLEAR     33  26  75 N9        30.13R
$$
MIZ016>042-231200-
NORTHERN LOWER MICHIGAN

CITY           SKY/WX    TMP DP  RH WIND       PRES   REMARKS
ALPENA         CLEAR     31  24  75 NW9       30.05R
BEAVER ISLAND  CLEAR     30  24  78 NW3       30.13R
BELLAIRE       CLEAR     29  26  90 CALM      30.10R
CADILLAC       CLEAR     28  26  94 NW6       30.07R
CHARLEVOIX     CLEAR     30  28  90 N3        30.14R
FRANKFORT      SUNNY     31  29  90 CALM      30.13S
GAYLORD        CLEAR     29  22  75 VRB5      30.06R
GRAYLING       CLEAR     28  26  91 NW3       30.07R
HARBOR SPRINGS CLEAR     31  25  79 N3        30.09R
HOUGHTON LAKE  CLEAR     30  25  81 N8        30.06R
MANISTEE       CLEAR     32  27  80 N6        30.13S
OSCODA         CLEAR     32  27  80 N6        30.03R
PELLSTON       CLEAR     28  21  75 NW8       30.10R
TRAVERSE CITY  CLEAR     30  27  88 NW5       30.11R
$$
MIZ007>008-015-231200-
EASTERN UPPER MICHIGAN

CITY           SKY/WX    TMP DP  RH WIND       PRES   REMARKS
KINROSS        CLEAR     27  25  93 NW7       30.08R
MACKINAC ISLAN CLEAR     28  24  84 N7        30.08R
NEWBERRY       CLEAR     28  20  75 NW3       30.11R
S. S. MARIE    CLEAR     31  16  54 N3        30.08R
$$
MIZ004>006-011>014-085-231200-
CENTRAL UPPER MICHIGAN

CITY           SKY/WX    TMP DP  RH WIND       PRES   REMARKS
MANISTIQUE     CLEAR     25  23  93 NW6       30.13R
ESCANABA       CLEAR     27  23  86 NW6       30.15R
MENOMINEE      CLEAR     28  25  86 NW6       30.15R
SAWYER-GWINN   CLEAR     23  21  93 NW3       30.13R
$$
MIZ001>003-009>011-084-231200-
WESTERN UPPER MICHIGAN

CITY           SKY/WX    TMP DP  RH WIND       PRES   REMARKS
IRON MOUNTAIN  CLEAR     22  17  81 CALM      30.14R
HOUGHTON       CLEAR     25  20  81 NW6       30.15R
COPPER HARBOR    N/A     29  24  82 W3        30.15R
IRONWOOD       CLEAR     25  19  80 CALM      30.12R
$$

ABBREVIATIONS USED IN REMARKS
   TC - TEMPERATURE IN CELSIUS
  WCI - WIND CHILL INDEX
   HX - HEAT INDEX
  VSB - VISIBILITY




USA.gov is the U.S. government's official web portal to all federal, state and local government web resources and services.